Terminal Aerodrome Forecast
Issued by NWS

Home | Current Version | Previous Version | Text Only | Print | Product List | Glossary On
Versions: 1 2 3 4 5 6 7 8 9 10 11 12 13 14 15
000
FTUS41 KBTV 281720
TAFRUT
TAF
KRUT 281720Z 2818/2918 29009G16KT P6SM BKN035
     FM282200 29005KT P6SM BKN040
     FM291400 30008G15KT P6SM SCT045
      AMD LTD TO CLD VIS AND WIND=

USA.gov is the U.S. government's official web portal to all federal, state and local government web resources and services.